COSMOS 1275 DEB

Satellite information

Favourite Embed

Satellite Type and Status

DEBRISIN ORBIT

Key statistics

Satellite COSMOS 1275 DEB at a glance.

Uptime

16103

Days in orbit

Revolutions

≈ 14.0

Per day

Orbit

LEO

Low Earth Orbit

Inclination

83.0

Latest

Satellite identification and parameters

Extended collection of information and parameters for COSMOS 1275 DEB.

Object identification

Identified? True

Debris? True

Object name: COSMOS 1275 DEB

International designator: 1981-053Z

Object number (NORAD): 12669

Object ID (CCSDS): 12669

Country: COMMONWEALTH OF INDEPENDENT STATES (CIS)

Current information (Y/N): Y

RCS size: SMALL

Orbital parameters

Period: 102.634 minutes

Inclination: 82.9981 deg

SMA: 7261.433 km

Apoapsis: 938.017 km

Periapsis: 828.579 km

RAAN: 79.52 deg

Eccentricy: 0.0075356

Argument of periapsis: 91.3402 deg

Mean anomaly: 28.0843 deg

Mean motion: 14.03037467 rev/day

Mean motion (dot): 0.00001622 rev/day2

B* drag term: 0.0010085 1/REarth

Two-line elements (TLE)

Creation date: July 5, 2025, 5:45 p.m.

Reference frame: TEME

Reference center: EARTH

Epoch: July 5, 2025, 2:19 a.m. UTC

TLE line 0: 0 COSMOS 1275 DEB

TLE line 1: 1 12669U 81053Z 25186.09709687 .00001622 00000-0 10085-2 0 9996

TLE line 2: 2 12669 82.9981 79.5200 0075356 91.3402 28.0843 14.03037467216011

Live tracking on map

Real-time ground track for satellite COSMOS 1275 DEB.

In-orbit conjunctions

A list of the most updated potential collisions computed for object COSMOS 1275 DEB.

Target Orbit TCA Probability of collision Miss distance Type
METEOR 2-3 LEO 2024-11-30 06:09:56 0.0005077323 131.0 (m) PAYLOAD
METEOR 2-11 DEB LEO 2024-09-27 11:45:25 0.0005174199 324.0 (m) DEBRIS

Associated space launch

Navigation satellite providing location information for the Tsiklon-B navigation system

COSMOS 1275 DEB was lifted into orbit during the mission ‘Kosmos-3M | Parus 27’, on board a Kosmos-3M space rocket.

The launch took place on June 4, 1981, 3:41 p.m. from 132/2.

For more information about the launch, click the button.

Launch to space Kosmos-3M | Parus 27
Kosmos-3M | Parus 27

Agency: N/A

Status: Launch Successful

Launch date: June 4, 1981, 3:41 p.m. UTC

Rocket: Kosmos-3M

Launch pad: 132/2

Location: Plesetsk Cosmodrome, Russian Federation

...

Latest news about this satellite

There are no fresh news available about this satellite. Check back as we update our databases every day.


Newsletter sign-up

Weekly statistics, charts and insights to help you stay on top of the space industry.